Showing default

GNOMES-3, 52158

Orbit data source: Space-Track

GNOMES-3, 52158 is a payload satellite owned by PlanetiQ (US) in SSO that was launched on Fri, 01 Apr 2022 UTC via an FALCON 9 launch vehicle from the Air Force Eastern Test Range (AFETR). Payload-class satellites include a variety of spacecraft equipped with specific instruments for various scientific and technological missions. These include communications satellites like Starlink; space stations such as the ISS; scientific satellites like the Hubble; Earth observation satellites from companies like Planet Labs, Umbra, and HawkEye 360; GPS; miniature CubeSats for education and research; and military/defense satellites.

Loading next visibility...
Identifier
52158, 2022-033B
Orbit
SSO
Country
Flag of USUS
Related business
Manufacturer
Blue Canyon
Mission
Operational Commercial Communications
Bus & Motor
XSAT, Unknown motor
Mass
~30 kg wet, ~30 kg dry
Launch date (UTC)
2022-04-01 (4 years ago)
Launch vehicle
FALCON 9
Launch site
Air Force Eastern Test Range (AFETR)
Object type
Payload
Rocket body
Debris
Shape & HBR
Box + 2 Pan, 0.3 m
Radar Cross Section
0.162 m², Medium (>0.1 m² and < 1m²)

Expand to show TLE details & history
Last TLE update: 12 hours ago

TLE from 12 hours ago
0 GNOMES-3
1 52158U 22033B   25286.94026353  .00003579  00000-0  43922-3 0  9993
2 52158  97.8474   2.5637 0012141  54.9447 305.2904 14.83662852190803
Epoch: 2025-10-13T22:33Z
TLE epoch observation values (Epoch: 2025-10-13T22:33:58.768Z)
Latitude
-0.00007°
Longitude
1.33301°
Altitude
615.913 km
Speed
7.554 km/s
True Right ascension
00h 10m 15s
True Declination
0° 00' 00"
Sunlit
Object was in full shadow at epoch
Visualization orbit readout
Latitude
Unknown
Longitude
Unknown
Altitude
Unknown
Speed
Unknown
Apparent Right ascension
Unknown
Apparent Declination
Unknown
Sunlit
N/A
Visualization observer readout
Local Sidereal Time
04:54:32
Azimuth
Unknown
Elevation
Unknown
Doppler factor
Unknown
Orbital elements
Apogee altitude
623.31 km
Perigee altitude
606.33 km
Semi-major axis
6,992.957 km
Eccentricity
0.00121
Inclination
97.8474°
RAAN
2.5637°
Arg. of periapsis
54.9447°
True anomaly
305.17674°
Mean anomaly
305.2904°
Eccentric anomaly
305.23358°
Mean motion
3.71152 °/min
Orbital period
97 mins
BSTAR
0.00043922
Loading maneuver chart data...
Computing Atmospheric mass density...
Loading historical data...
Loading historical data...
Loading historical data...
Loading historical data...
Loading historical data...
Loading historical data...
Loading historical data...

Documentation

Showing up to 5 results
|